Temp
-26 -27 -29 -29 -30 -31 -31 -31 -31 -30 -30 -30 -30 -30 -29 -30 -31 -31 -30 -28 -26 -23 -22 -22 -20 -20 -21 -21 -19 -18 -17 -17 -16 -16 -16 -14 -14 -13 -13 -13 -13 -12 -12 -12
-27 -28 -29 -30 -30 -31 -31 -31 -31 -30 -30 -30 -30 -29 -29 -30 -30 -31 -31 -29 -27 -24 -22 -22 -21 -20 -21 -21 -20 -18 -18 -17 -17 -16 -16 -16 -15 -14 -14 -14 -13 -13 -13 -13
-28 -29 -30 -30 -30 -31 -30 -31 -31 -30 -29 -29 -30 -29 -29 -30 -30 -30 -30 -30 -29 -26 -23 -22 -22 -21 -21 -21 -21 -20 -18 -17 -17 -17 -16 -16 -16 -15 -15 -15 -13 -13 -13 -13
-28 -30 -31 -30 -31 -31 -31 -31 -31 -30 -30 -29 -31 -29 -29 -30 -30 -30 -30 -30 -30 -29 -25 -22 -22 -22 -22 -22 -21 -20 -19 -18 -17 -18 -17 -16 -16 -15 -15 -15 -14 -13 -13 -13
-29 -30 -31 -31 -31 -31 -31 -31 -30 -30 -30 -30 -30 -30 -28 -29 -29 -30 -30 -30 -30 -30 -28 -24 -22 -21 -22 -23 -21 -20 -19 -19 -18 -18 -18 -17 -16 -16 -15 -15 -15 -14 -14 -14
-30 -31 -31 -31 -31 -31 -31 -31 -30 -30 -30 -29 -30 -30 -29 -29 -30 -29 -29 -29 -30 -30 -29 -26 -23 -22 -23 -23 -23 -21 -20 -19 -19 -18 -18 -18 -17 -16 -16 -16 -15 -15 -14 -14
-30 -30 -31 -31 -31 -31 -31 -31 -30 -30 -29 -29 -30 -29 -29 -29 -29 -29 -29 -29 -30 -30 -30 -28 -24 -23 -23 -23 -23 -22 -21 -19 -19 -18 -18 -19 -19 -18 -17 -16 -16 -15 -15 -15
-30 -29 -31 -32 -32 -31 -31 -31 -31 -30 -30 -29 -30 -29 -29 -30 -29 -30 -30 -29 -29 -30 -30 -29 -25 -23 -23 -24 -23 -23 -22 -20 -19 -18 -18 -19 -20 -19 -18 -17 -16 -16 -16 -15
-30 -29 -31 -31 -32 -32 -31 -31 -31 -31 -30 -30 -29 -29 -29 -29 -29 -29 -29 -29 -29 -29 -29 -30 -28 -24 -24 -24 -24 -23 -23 -22 -20 -19 -19 -19 -19 -19 -18 -17 -17 -17 -17 -16
-30 -29 -31 -31 -32 -31 -31 -31 -31 -31 -30 -29 -28 -29 -29 -29 -29 -29 -29 -29 -29 -29 -30 -30 -30 -27 -25 -24 -24 -23 -23 -22 -21 -20 -19 -19 -19 -19 -19 -19 -18 -18 -17 -17
-30 -30 -30 -31 -32 -31 -31 -30 -31 -31 -31 -31 -29 -28 -29 -29 -29 -29 -29 -29 -29 -30 -30 -30 -30 -29 -27 -25 -24 -24 -23 -23 -22 -21 -21 -20 -20 -20 -19 -19 -20 -19 -18 -18
-31 -31 -30 -31 -31 -31 -31 -31 -31 -31 -31 -30 -30 -29 -29 -29 -29 -29 -29 -30 -30 -30 -30 -29 -29 -29 -28 -27 -25 -24 -24 -24 -23 -23 -22 -22 -21 -20 -20 -20 -20 -20 -20 -19
-31 -31 -31 -31 -31 -31 -31 -31 -31 -31 -31 -30 -30 -29 -29 -29 -29 -29 -29 -30 -30 -29 -29 -29 -29 -29 -29 -27 -25 -24 -24 -24 -24 -23 -23 -22 -22 -22 -21 -21 -20 -20 -20 -20
-31 -31 -31 -31 -31 -31 -31 -31 -31 -31 -30 -30 -30 -29 -29 -29 -29 -29 -29 -30 -30 -30 -30 -29 -30 -30 -29 -28 -27 -25 -24 -23 -23 -23 -23 -23 -22 -22 -21 -21 -21 -20 -20 -19
-31 -31 -31 -31 -31 -31 -31 -31 -31 -30 -30 -30 -30 -29 -29 -29 -28 -28 -29 -29 -29 -29 -29 -28 -29 -29 -29 -28 -27 -26 -26 -24 -24 -23 -23 -23 -22 -22 -22 -21 -21 -20 -20 -20
-31 -31 -31 -31 -32 -31 -31 -31 -31 -30 -30 -30 -30 -29 -29 -29 -28 -28 -28 -28 -28 -28 -28 -28 -28 -28 -28 -27 -27 -26 -25 -26 -25 -25 -24 -23 -23 -22 -22 -21 -21 -21 -20 -20
-31 -32 -31 -31 -31 -31 -31 -31 -31 -30 -30 -30 -30 -30 -29 -29 -28 -28 -28 -28 -27 -27 -27 -27 -27 -27 -27 -27 -27 -26 -26 -25 -25 -25 -26 -25 -24 -23 -22 -22 -22 -21 -21 -21
-31 -32 -32 -31 -31 -31 -31 -31 -30 -30 -30 -30 -30 -30 -29 -29 -29 -28 -28 -28 -28 -27 -27 -27 -27 -27 -27 -26 -26 -26 -26 -26 -25 -26 -26 -26 -26 -25 -23 -22 -22 -22 -22 -21
-31 -32 -32 -31 -31 -31 -31 -31 -30 -30 -30 -30 -30 -30 -30 -29 -29 -29 -29 -28 -28 -28 -27 -27 -27 -27 -27 -27 -26 -26 -26 -26 -26 -26 -26 -26 -26 -26 -25 -24 -23 -23 -22 -22
-32 -32 -32 -32 -31 -31 -31 -31 -31 -30 -30 -30 -30 -30 -29 -29 -29 -29 -29 -29 -28 -28 -28 -28 -27 -27 -27 -27 -27 -26 -26 -26 -26 -26 -26 -26 -26 -26 -25 -25 -24 -24 -23 -23
-32 -32 -32 -32 -32 -31 -31 -31 -31 -31 -30 -30 -30 -30 -29 -29 -29 -29 -29 -29 -29 -28 -28 -28 -28 -27 -27 -27 -27 -27 -27 -27 -27 -27 -27 -26 -27 -27 -26 -25 -25 -25 -25 -24
-32 -32 -32 -33 -32 -32 -32 -31 -31 -31 -31 -30 -30 -30 -29 -29 -29 -29 -28 -28 -28 -28 -28 -28 -28 -28 -28 -27 -27 -27 -27 -27 -27 -27 -27 -27 -27 -27 -27 -26 -26 -26 -25 -25
-33 -33 -33 -33 -33 -32 -32 -32 -31 -31 -31 -31 -31 -30 -30 -30 -29 -29 -29 -29 -29 -29 -28 -28 -28 -27 -27 -27 -27 -28 -27 -27 -27 -27 -27 -27 -27 -27 -27 -27 -26 -26 -26 -26
-33 -33 -32 -33 -33 -33 -32 -32 -32 -31 -31 -31 -31 -31 -31 -30 -30 -30 -30 -30 -30 -29 -29 -29 -29 -29 -28 -28 -28 -28 -28 -28 -28 -27 -27 -28 -27 -27 -27 -27 -27 -26 -26 -26
-33 -33 -32 -32 -33 -33 -32 -32 -32 -32 -31 -32 -32 -32 -31 -31 -31 -31 -31 -31 -30 -30 -30 -30 -30 -30 -29 -29 -29 -29 -29 -29 -29 -29 -28 -28 -28 -28 -27 -27 -27 -27 -27 -26
-33 -33 -32 -32 -33 -33 -33 -32 -32 -32 -32 -32 -32 -32 -32 -32 -32 -31 -31 -31 -31 -31 -31 -31 -31 -30 -30 -30 -30 -30 -30 -29 -29 -29 -29 -29 -29 -28 -28 -28 -27 -27 -27 -27
Height
5492 5485 5470 5464 5454 5447 5441 5434 5430 5429 5428 5412 5408 5403 5401 5397 5391 5384 5378 5380 5389 5404 5427 5445 5464 5484 5498 5510 5524 5541 5553 5570 5581 5589 5599 5612 5621 5629 5641 5647 5655 5662 5665 5670
5483 5475 5462 5455 5448 5439 5434 5426 5425 5420 5419 5407 5402 5396 5393 5388 5380 5376 5369 5365 5367 5380 5400 5419 5441 5459 5475 5493 5508 5522 5537 5551 5565 5576 5587 5599 5610 5617 5628 5636 5642 5651 5658 5661
5471 5464 5454 5446 5441 5430 5428 5419 5418 5412 5407 5403 5391 5388 5386 5382 5374 5368 5362 5355 5354 5362 5376 5398 5419 5436 5456 5473 5490 5506 5522 5535 5549 5562 5572 5582 5593 5603 5612 5622 5631 5638 5646 5653
5462 5455 5444 5439 5430 5421 5415 5415 5411 5407 5400 5394 5388 5379 5379 5372 5368 5362 5357 5351 5348 5349 5361 5380 5399 5418 5436 5456 5474 5490 5505 5518 5533 5547 5556 5566 5578 5589 5601 5612 5619 5626 5635 5641
5454 5446 5437 5432 5423 5416 5412 5409 5405 5401 5395 5389 5386 5373 5368 5363 5361 5356 5351 5346 5344 5340 5342 5357 5380 5403 5424 5441 5455 5473 5490 5503 5517 5531 5541 5553 5567 5578 5586 5595 5603 5612 5621 5629
5442 5438 5430 5424 5418 5411 5406 5403 5401 5395 5390 5383 5376 5366 5363 5358 5354 5351 5347 5342 5338 5335 5332 5340 5361 5381 5402 5419 5435 5449 5467 5485 5500 5515 5528 5539 5551 5562 5572 5580 5589 5598 5610 5618
5439 5432 5425 5417 5412 5409 5403 5397 5392 5388 5381 5374 5369 5362 5359 5354 5349 5345 5341 5337 5332 5329 5326 5327 5343 5363 5386 5406 5424 5436 5453 5472 5488 5504 5517 5527 5535 5544 5555 5565 5575 5586 5596 5604
5428 5425 5420 5413 5404 5399 5401 5395 5389 5379 5373 5368 5365 5360 5356 5351 5346 5340 5334 5327 5324 5322 5320 5319 5329 5349 5371 5393 5412 5428 5442 5458 5474 5488 5505 5518 5525 5533 5542 5551 5562 5571 5580 5593
5419 5419 5416 5408 5401 5396 5395 5390 5386 5378 5373 5365 5361 5358 5354 5349 5343 5335 5326 5317 5312 5315 5316 5315 5320 5337 5359 5381 5399 5417 5433 5446 5459 5474 5491 5502 5512 5520 5531 5541 5550 5555 5566 5578
5416 5408 5410 5406 5400 5394 5390 5386 5381 5376 5368 5360 5357 5355 5350 5345 5339 5329 5318 5309 5306 5310 5313 5315 5317 5327 5346 5370 5390 5405 5421 5436 5450 5464 5477 5488 5500 5511 5520 5526 5534 5544 5554 5563
5409 5404 5405 5400 5395 5390 5387 5383 5379 5373 5370 5362 5354 5353 5346 5339 5333 5324 5314 5308 5307 5311 5314 5314 5316 5323 5338 5358 5379 5396 5411 5425 5440 5454 5465 5475 5484 5495 5504 5514 5524 5532 5541 5549
5403 5397 5395 5395 5391 5387 5384 5380 5376 5370 5367 5362 5356 5351 5344 5339 5332 5324 5314 5310 5312 5311 5313 5316 5318 5322 5335 5350 5369 5386 5402 5416 5429 5443 5453 5462 5471 5482 5491 5500 5510 5518 5526 5536
5398 5392 5388 5388 5387 5381 5380 5377 5373 5369 5365 5361 5355 5350 5345 5339 5334 5327 5318 5315 5317 5318 5320 5319 5324 5324 5332 5345 5362 5379 5395 5409 5422 5433 5443 5452 5461 5470 5478 5486 5497 5506 5514 5523
5390 5388 5384 5381 5380 5376 5375 5374 5371 5367 5363 5358 5354 5350 5345 5341 5337 5330 5322 5319 5319 5320 5322 5325 5326 5329 5335 5348 5359 5372 5388 5403 5414 5425 5434 5443 5451 5459 5467 5475 5482 5493 5501 5509
5384 5381 5379 5378 5374 5373 5370 5369 5368 5364 5361 5356 5354 5350 5346 5342 5339 5333 5328 5324 5324 5325 5327 5330 5331 5333 5342 5351 5361 5373 5383 5394 5405 5416 5425 5434 5442 5449 5455 5463 5470 5478 5488 5498
5379 5377 5375 5374 5369 5369 5367 5366 5364 5362 5358 5355 5352 5350 5346 5343 5341 5337 5335 5332 5331 5331 5333 5334 5335 5337 5345 5352 5361 5369 5380 5390 5398 5407 5417 5423 5430 5438 5445 5453 5459 5466 5474 5483
5373 5371 5369 5369 5365 5365 5364 5362 5361 5359 5357 5354 5352 5350 5347 5345 5342 5340 5339 5337 5337 5337 5337 5338 5339 5343 5349 5355 5361 5369 5377 5386 5394 5401 5407 5413 5420 5426 5433 5440 5446 5453 5460 5468
5366 5365 5362 5362 5361 5361 5360 5359 5358 5357 5355 5354 5352 5350 5349 5346 5344 5342 5342 5341 5341 5341 5341 5342 5344 5347 5350 5355 5362 5369 5376 5384 5390 5396 5401 5406 5411 5414 5419 5427 5433 5440 5447 5454
5358 5357 5357 5356 5356 5357 5356 5355 5355 5354 5354 5353 5352 5350 5350 5348 5346 5345 5344 5343 5343 5343 5344 5346 5348 5349 5352 5357 5362 5368 5374 5380 5385 5390 5395 5399 5402 5406 5409 5414 5421 5427 5433 5440
5351 5351 5351 5353 5351 5352 5352 5352 5351 5351 5352 5350 5350 5350 5350 5348 5348 5347 5346 5346 5346 5346 5347 5348 5350 5352 5355 5358 5362 5366 5370 5375 5379 5383 5386 5390 5394 5398 5401 5404 5409 5414 5420 5426
5345 5345 5345 5347 5346 5349 5349 5348 5348 5349 5352 5348 5348 5348 5348 5348 5348 5348 5348 5348 5348 5348 5349 5350 5351 5352 5354 5357 5360 5364 5367 5371 5374 5377 5380 5384 5387 5389 5393 5396 5400 5404 5408 5413
5339 5339 5339 5341 5342 5344 5344 5345 5345 5345 5345 5345 5346 5346 5346 5347 5347 5347 5347 5348 5348 5349 5349 5350 5351 5353 5355 5357 5359 5362 5364 5366 5369 5372 5374 5376 5378 5381 5384 5388 5391 5395 5398 5402
5333 5333 5333 5336 5337 5338 5339 5340 5340 5340 5341 5342 5343 5343 5343 5344 5345 5346 5347 5348 5348 5349 5349 5350 5351 5353 5354 5356 5357 5360 5362 5363 5364 5366 5367 5369 5370 5373 5375 5378 5382 5385 5388 5391
5327 5327 5326 5328 5332 5331 5333 5335 5336 5336 5336 5338 5339 5340 5341 5341 5342 5343 5345 5346 5346 5347 5348 5349 5349 5350 5352 5353 5355 5356 5356 5357 5359 5360 5361 5362 5363 5365 5366 5368 5371 5374 5377 5380
5324 5323 5323 5323 5326 5325 5328 5329 5331 5332 5332 5333 5335 5336 5337 5338 5339 5340 5341 5342 5344 5345 5346 5346 5347 5347 5348 5349 5349 5350 5350 5352 5352 5353 5353 5354 5355 5356 5357 5359 5361 5363 5366 5368
5318 5317 5316 5317 5317 5316 5321 5323 5325 5327 5328 5328 5329 5331 5333 5334 5335 5336 5337 5338 5339 5340 5340 5340 5340 5341 5341 5342 5342 5342 5342 5342 5342 5343 5343 5343 5344 5345 5347 5348 5350 5352 5354 5357
Wind_Speed
58 54 50 48 45 45 41 41 40 28 24 44 39 37 19 24 30 39 40 69 95 102 98 96 96 92 85 88 87 88 87 84 80 74 74 74 71 70 66 62 61 63 63 58
52 45 41 43 43 45 44 43 33 27 28 41 37 31 19 27 31 34 41 47 75 99 101 96 97 96 88 88 88 88 88 84 80 79 74 73 74 72 69 67 62 61 62 62
46 36 40 42 45 45 38 37 28 33 35 33 41 36 22 15 18 29 28 31 49 86 100 98 97 95 88 88 90 89 87 86 82 78 76 77 75 76 73 70 67 66 61 60
42 34 38 42 44 40 38 27 27 31 33 33 39 32 26 26 27 25 24 28 25 46 92 99 96 96 88 87 89 90 87 85 82 80 79 79 81 80 77 73 67 66 63 62
38 33 39 41 40 30 18 22 26 30 35 39 36 39 26 19 20 20 18 23 24 23 52 93 97 96 88 86 89 91 89 87 85 81 82 79 78 79 80 77 76 70 63 60
41 36 38 38 36 26 21 24 24 31 37 42 31 32 17 17 21 14 20 23 22 21 26 68 96 95 88 87 92 93 92 90 86 84 82 79 76 74 81 78 76 76 62 65
37 32 32 34 36 26 25 27 31 35 40 42 26 19 16 22 21 20 25 24 24 23 19 40 87 95 88 85 89 94 92 90 87 85 81 77 81 75 76 69 71 80 67 60
42 32 24 29 37 34 17 24 27 38 41 35 12 11 18 20 24 30 38 32 25 19 22 19 61 90 89 82 86 93 91 89 84 86 84 79 77 81 79 76 64 62 68 67
44 33 21 27 30 29 21 22 25 33 34 30 14 13 20 24 28 36 32 31 23 16 15 12 33 72 87 79 82 88 92 91 88 86 78 81 83 83 83 81 71 68 59 64
44 40 20 22 26 26 23 23 28 27 30 31 17 15 23 26 30 33 35 25 8 11 12 9 19 48 71 78 77 83 88 91 87 84 80 80 80 78 81 84 83 77 72 63
43 36 22 21 31 17 20 22 24 26 24 27 24 19 26 32 32 36 32 14 1 6 10 13 17 40 53 68 74 78 80 86 84 77 72 71 76 77 79 77 75 79 76 71
40 34 24 20 23 18 17 19 20 24 23 20 24 23 27 26 33 33 25 4 4 2 10 7 5 31 50 59 71 75 77 74 80 83 72 73 73 75 76 75 71 75 76 76
40 34 26 21 22 24 16 15 17 19 19 16 19 20 19 24 27 28 17 6 13 8 11 9 12 16 42 55 64 70 75 76 75 75 73 69 65 67 72 72 74 73 73 75
36 30 27 25 24 27 16 12 16 16 15 13 14 15 17 19 21 26 17 6 3 9 16 4 6 26 39 45 49 60 65 70 73 74 75 74 70 69 71 71 70 73 73 76
32 28 26 23 23 22 17 13 14 15 15 12 12 13 14 15 17 23 23 18 7 15 18 10 5 21 36 41 47 51 53 57 61 66 68 68 69 70 70 72 75 72 72 75
26 24 24 20 19 20 17 15 13 12 13 11 11 10 11 10 12 18 20 17 6 6 3 1 3 13 33 37 28 31 53 49 49 53 60 62 68 70 71 73 72 75 73 70
26 22 24 16 16 17 17 15 12 10 11 9 10 9 9 7 7 11 12 16 15 15 15 12 7 16 17 29 37 32 32 45 50 50 50 56 60 65 69 71 71 73 75 75
22 23 24 17 15 17 17 16 15 13 10 7 6 6 6 6 6 7 7 9 9 10 11 12 11 14 11 17 30 28 27 26 28 29 36 37 39 44 59 66 68 68 69 71
22 27 23 19 15 15 15 15 17 15 13 10 5 4 4 3 4 5 7 8 9 8 6 7 8 9 11 17 19 16 19 22 27 26 28 32 34 34 35 52 63 64 66 67
19 27 26 19 18 14 13 16 14 16 14 12 9 5 3 1 3 4 5 7 7 9 8 8 9 12 12 12 13 14 13 15 13 18 23 33 35 36 34 36 46 54 59 62
22 25 27 19 20 15 15 14 14 13 13 13 13 10 6 4 3 4 4 5 3 3 4 6 7 7 10 12 15 17 18 20 21 22 22 28 31 28 35 35 38 43 50 55
21 24 26 24 21 16 15 14 13 14 12 12 14 14 11 9 7 7 7 7 6 4 3 2 0 2 5 6 8 12 16 20 24 27 28 30 27 29 27 30 32 37 39 43
20 21 25 28 22 19 17 14 13 13 17 15 13 15 15 14 12 12 11 12 10 10 10 8 8 7 7 8 10 11 14 16 17 19 22 25 29 32 33 35 35 34 35 37
21 22 24 27 23 24 20 18 15 13 14 18 16 13 14 14 13 11 12 12 12 12 11 10 11 12 14 14 16 18 19 19 20 21 23 23 23 25 28 31 36 39 40 40
23 22 24 19 23 28 23 20 18 16 14 17 19 14 14 13 12 11 12 11 11 11 11 12 13 14 16 17 19 21 22 22 22 24 26 28 29 30 31 30 31 33 36 38
19 19 22 18 28 34 27 24 20 19 15 15 19 18 15 15 15 14 13 12 10 10 12 13 15 17 19 21 23 26 28 30 31 33 34 35 35 35 37 38 38 37 36 35
Wind_Direction
314 311 304 303 304 304 303 304 296 303 294 299 304 305 296 288 292 287 272 247 237 230 225 221 219 222 218 221 224 223 223 223 223 219 215 218 215 217 220 220 221 221 225 224
315 309 297 301 302 302 297 297 301 299 305 297 303 320 303 296 289 295 283 259 241 231 226 222 218 217 216 216 222 222 222 221 221 223 217 217 219 217 219 221 221 225 224 228
312 308 304 307 309 303 296 292 297 306 308 299 304 314 303 291 288 300 311 294 253 236 226 222 219 216 213 212 218 222 222 221 219 221 219 215 219 220 219 220 222 225 227 227
315 311 308 314 320 311 305 285 299 309 308 310 313 310 313 295 290 298 304 308 304 251 232 222 218 217 212 210 215 219 220 221 219 218 221 218 217 218 219 220 222 226 228 229
322 313 305 314 322 306 310 292 300 304 307 313 312 306 305 303 299 295 293 299 305 306 240 227 219 216 217 210 210 217 219 221 221 218 220 221 220 220 219 220 221 222 226 226
320 311 303 314 324 299 292 295 304 304 300 314 333 310 329 322 330 290 297 295 295 315 269 229 220 215 215 212 206 212 216 218 220 220 220 222 220 221 221 223 223 222 225 230
323 317 301 314 320 300 292 302 305 303 318 325 326 308 323 342 334 327 325 313 289 295 301 236 221 217 214 213 208 210 213 216 218 220 219 219 223 222 222 220 225 228 221 225
329 330 318 318 321 314 295 296 308 312 323 327 317 299 320 332 326 314 309 306 294 275 291 257 220 217 216 212 210 210 212 214 216 219 220 220 221 224 224 220 217 224 227 225
332 334 327 328 321 313 305 301 310 313 319 325 314 302 323 327 326 322 316 306 284 243 278 264 214 214 216 212 209 211 212 214 215 217 218 221 221 224 229 229 223 223 223 228
333 328 326 326 326 305 296 304 316 320 323 326 322 316 323 329 337 339 330 322 284 218 261 300 213 204 212 211 210 211 213 214 216 216 218 223 224 225 229 233 236 234 233 228
324 323 328 323 328 305 289 304 316 318 325 324 320 332 330 340 346 346 335 332 287 209 265 291 224 204 199 206 209 210 213 215 216 214 219 222 225 225 227 231 233 237 238 237
318 317 318 315 325 324 294 308 314 319 325 328 323 333 337 347 352 348 348 13 99 270 269 98 322 206 197 200 205 209 211 215 216 219 218 223 225 226 227 227 228 232 236 237
314 314 316 309 318 329 308 307 309 314 319 330 339 342 349 354 354 360 5 46 157 170 48 49 175 219 194 198 206 208 211 213 217 219 219 222 222 225 226 229 229 230 232 234
307 313 311 310 314 321 309 304 302 314 316 333 346 346 352 359 359 16 18 49 146 213 184 119 226 198 194 190 199 210 209 212 216 219 222 223 225 227 227 229 232 231 230 233
303 304 300 310 300 310 305 305 304 302 316 332 344 346 346 358 6 25 37 58 94 148 134 119 212 212 178 197 192 198 216 219 219 220 222 226 229 229 230 231 233 235 234 234
297 291 290 309 287 302 297 287 302 301 313 332 333 345 351 356 13 30 38 65 54 161 132 94 21 196 191 188 181 195 207 216 225 226 231 232 233 233 235 235 236 237 238 237
287 280 282 311 281 286 289 281 283 308 325 324 326 344 350 6 30 45 37 61 82 73 65 69 90 164 185 206 215 221 214 215 215 227 235 233 234 236 237 238 239 239 239 240
287 270 273 296 299 277 292 273 273 286 308 305 333 353 359 17 48 63 75 76 69 67 73 64 78 175 190 161 189 205 205 209 214 230 231 233 238 245 238 234 235 236 236 237
278 264 270 280 292 292 275 280 270 273 287 285 294 330 344 357 54 60 82 90 90 90 110 125 105 93 146 182 187 199 203 216 224 228 235 240 247 245 243 235 231 233 233 234
277 260 258 267 277 291 306 268 275 272 273 276 282 290 305 59 89 94 77 87 98 107 109 122 144 158 160 167 185 192 199 205 220 240 240 246 246 242 239 239 237 236 235 236
272 268 259 257 269 275 293 299 264 277 267 267 274 280 272 301 311 340 27 50 70 92 106 120 136 141 164 188 199 206 209 218 231 247 236 226 243 241 239 240 239 238 237 238
267 266 257 243 255 268 281 295 294 267 271 268 264 266 267 262 261 278 288 308 328 334 339 0 25 174 176 188 205 213 222 231 234 235 237 240 240 240 239 240 241 243 241 240
274 271 260 245 244 252 261 281 291 286 263 263 265 259 260 262 260 262 261 267 276 275 263 253 245 240 258 260 249 236 230 234 239 241 240 241 238 238 242 243 246 246 243 243
272 268 268 249 239 244 249 260 272 286 276 253 251 252 253 251 250 254 254 254 262 268 267 264 266 266 267 262 259 260 258 254 249 247 249 247 247 247 243 242 244 246 246 246
288 277 273 263 239 247 246 253 260 274 279 260 244 246 247 246 240 237 240 244 249 255 261 263 267 271 275 277 281 281 278 274 272 269 263 258 257 254 250 248 246 246 246 247
287 268 259 258 232 242 241 245 251 259 268 268 246 240 247 239 236 234 231 235 251 267 279 290 298 301 301 297 293 289 285 283 281 277 273 269 263 257 255 254 252 247 246 248